Lapse_Rate
1.6 2.1 3.0 3.9 3.9 3.8 2.9 2.7 2.5 2.7 2.9 2.9 2.9 3.1 3.5 3.7 4.9 5.5 5.8 5.2 5.3 5.6
1.0 1.1 1.4 1.8 2.3 1.5 1.5 2.2 1.9 1.8 2.0 2.2 2.3 2.5 3.3 3.5 4.0 4.7 5.0 4.8 3.9 4.4
1.1 1.5 1.3 1.5 2.3 2.2 2.0 3.1 3.1 2.8 1.7 1.5 1.2 1.3 1.5 2.4 2.4 2.0 1.6 2.1 1.9 1.6
0.6 0.9 0.9 1.6 2.4 2.9 2.9 2.9 3.0 3.3 2.7 2.0 2.0 1.7 1.7 2.0 2.0 2.0 1.8 1.8 1.8 1.7
-0.1 0.1 0.2 0.7 2.0 3.3 2.8 3.0 3.2 3.6 3.7 2.9 2.8 2.6 2.2 1.8 1.5 1.7 2.4 2.6 2.6 2.3
-0.8 -0.8 -0.8 -0.6 -0.0 1.1 1.5 2.2 2.4 2.3 3.2 3.8 3.9 3.4 3.8 3.5 2.9 2.9 2.5 1.8 3.0 2.7
-0.6 -0.9 -1.0 -0.5 -0.1 0.4 0.4 0.4 0.5 1.0 1.9 2.6 3.7 4.3 4.2 4.3 4.1 4.1 3.6 3.6 3.6 4.1
-0.4 -0.6 -0.6 -0.3 0.2 0.5 0.6 0.8 1.2 1.5 1.8 2.2 3.9 5.0 4.1 4.2 3.7 3.8 4.8 4.2 4.7 5.2
0.1 -0.1 -0.1 -0.1 -0.1 -0.1 0.1 0.6 0.8 1.3 2.1 2.5 4.0 5.5 6.4 4.9 4.2 4.9 5.3 5.6 5.1 5.6
0.5 0.5 0.2 -0.2 -0.3 0.0 0.2 0.4 1.0 1.4 2.0 2.1 3.1 5.8 5.7 5.5 4.1 4.3 4.8 5.1 5.4 6.5
0.2 0.2 -0.2 -0.3 -0.4 -0.4 -0.1 0.4 1.2 1.6 2.2 2.9 5.1 7.2 6.2 5.6 3.3 3.3 4.1 5.1 5.7 6.1
0.0 -0.0 -0.1 0.1 -0.2 -0.3 0.2 0.9 1.3 2.0 2.5 3.0 3.9 8.4 8.5 5.7 4.0 4.2 4.4 4.8 4.7 6.0
0.1 0.2 0.1 -0.2 -0.3 -0.1 0.2 1.5 1.5 2.9 2.4 5.0 3.3 6.3 9.1 6.2 4.7 4.3 4.6 4.6 4.9 7.0
-0.4 -0.1 -0.6 -0.7 -0.8 -0.2 0.6 1.2 1.1 2.4 1.8 2.4 3.7 3.9 8.2 8.4 5.9 5.9 5.1 5.0 4.7 4.7
Wind_Speed
7 5 5 7 7 5 5 6 9 8 7 8 9 8 7 7 8 10 10 12 9 7
4 5 6 7 6 5 6 7 8 8 8 7 7 9 9 7 8 8 5 4 3 3
7 7 7 6 8 8 8 9 9 9 8 8 8 9 9 7 10 8 7 6 7 5
5 5 5 5 6 7 7 9 10 10 9 9 9 10 9 8 9 10 10 9 8 8
5 6 6 6 7 8 7 6 7 9 10 10 10 9 8 8 8 8 9 10 10 10
5 5 5 6 6 7 7 8 8 7 8 10 9 8 9 7 6 7 8 8 8 9
3 3 4 5 6 5 5 6 6 7 7 8 8 8 9 8 6 6 7 7 8 7
0 1 2 4 4 4 5 5 5 6 6 6 6 6 6 7 7 6 7 7 6 7
1 1 1 2 3 4 4 5 5 5 5 7 4 13 14 10 6 6 6 6 6 5
1 1 1 2 3 3 4 4 4 4 5 5 4 11 11 12 5 5 5 5 5 5
3 2 0 2 2 2 2 3 2 3 4 5 5 9 10 9 5 5 5 5 5 5
4 3 1 1 2 1 2 2 2 1 3 4 5 10 9 7 5 5 6 5 5 5
4 3 3 2 1 1 1 2 2 2 2 3 4 9 7 6 3 4 3 5 6 11
5 5 4 2 1 0 1 2 3 2 2 3 4 6 7 8 2 2 2 3 3 4
Wind_Direction
357 356 3 7 1 356 349 347 357 350 356 352 343 335 328 311 293 273 268 259 252 256
358 15 16 9 8 359 350 359 356 358 355 357 355 356 353 347 336 323 334 329 327 291
5 12 4 1 12 9 360 357 0 2 358 353 11 10 15 10 0 5 9 14 15 37
359 3 3 10 7 4 3 5 0 353 359 354 3 19 16 16 24 13 15 21 24 22
1 3 7 6 1 357 360 5 8 355 354 357 4 2 8 24 20 25 33 15 14 25
9 7 2 2 2 356 351 358 3 11 3 357 359 1 360 10 28 36 36 36 25 30
11 7 10 7 11 3 0 4 3 5 3 2 0 14 6 7 10 32 47 43 47 47
149 37 20 11 358 359 9 9 5 5 360 358 2 17 28 11 12 21 19 32 34 44
218 45 25 26 13 20 16 11 21 14 2 360 352 36 32 37 20 15 22 8 6 14
190 199 9 30 25 9 7 3 8 6 11 6 359 37 36 41 31 30 24 21 13 7
176 180 10 17 22 360 12 9 353 357 358 2 356 45 49 51 39 51 44 26 3 6
183 184 183 332 330 350 5 347 346 314 357 5 350 2 54 49 36 28 14 9 11 4
177 180 195 223 279 317 322 312 332 332 6 4 355 352 28 75 63 32 2 350 347 353
171 180 188 177 171 320 3 25 26 54 16 19 0 352 15 3 58 20 356 349 334 325